Location: Lake Almanor
(40.2485°N, 121.1442°W)
Time: 16:13:45
(UTC-08:00)

STARLINK-1083 - Pass Details

Date: 30 January 2020
Orbit: 348 x 351 km, 53.0° (Epoch: 17 February)

Event Time Altitude Azimuth Distance (km) Brightness Sun altitude
Rises 19:25:33 0° 306° (NW) 2,164 7.4 -24.0°
Reaches altitude 10° 19:27:35 10° 303° (WNW) 1,318 6.3 -24.4°
Enters shadow 19:28:40 20° 298° (WNW) 883 5.3 -24.6°
